Wetterdaten: Sonntag, 20.01.2013
Datum Zeit Temperatur Luftfeuchte Luftdruck Regen Wind Richtung Richtung Sonnenschein ET UV Solar Taupunkt Windchill Windben
20.01.2013 00:00 -6,3 C 87 % 998,6 hPa 0,0 l/m 8,9 km/h (2 Bft) O-NO 64 0 min 0,000 mm 0,0 UV-I 0 W/m -8,1 C -9,3 C 14,5 km/h (3 Bft)
20.01.2013 00:05 -6,3 C 87 % 998,6 hPa 0,0 l/m 10,0 km/h (2 Bft) N-NO 22 0 min 0,000 mm 0,0 UV-I 0 W/m -8,1 C -10,4 C 20,9 km/h (4 Bft)
20.01.2013 00:10 -6,3 C 87 % 998,6 hPa 0,0 l/m 10,2 km/h (2 Bft) O-NO 62 0 min 0,000 mm 0,0 UV-I 0 W/m -8,1 C -10,6 C 22,5 km/h (4 Bft)
20.01.2013 00:15 -6,3 C 87 % 998,6 hPa 0,0 l/m 7,9 km/h (2 Bft) O-NO 67 0 min 0,000 mm 0,0 UV-I 0 W/m -8,1 C -8,1 C 14,5 km/h (3 Bft)
20.01.2013 00:20 -6,3 C 87 % 998,5 hPa 0,0 l/m 7,6 km/h (2 Bft) O-NO 69 0 min 0,000 mm 0,0 UV-I 0 W/m -8,1 C -7,8 C 19,3 km/h (3 Bft)
20.01.2013 00:25 -6,3 C 87 % 998,5 hPa 0,0 l/m 9,4 km/h (2 Bft) NO 52 0 min 0,000 mm 0,0 UV-I 0 W/m -8,1 C -9,8 C 20,9 km/h (4 Bft)
20.01.2013 00:30 -6,3 C 87 % 998,4 hPa 0,0 l/m 11,3 km/h (2 Bft) O-NO 67 0 min 0,000 mm 0,0 UV-I 0 W/m -8,1 C -11,6 C 20,9 km/h (4 Bft)
20.01.2013 00:35 -6,3 C 88 % 998,4 hPa 0,0 l/m 12,0 km/h (2 Bft) NO 56 0 min 0,000 mm 0,0 UV-I 0 W/m -8,0 C -12,3 C 22,5 km/h (4 Bft)
20.01.2013 00:40 -6,4 C 88 % 998,3 hPa 0,0 l/m 11,4 km/h (2 Bft) O-NO 63 0 min 0,000 mm 0,0 UV-I 0 W/m -8,1 C -11,8 C 22,5 km/h (4 Bft)
20.01.2013 00:45 -6,4 C 87 % 998,3 hPa 0,0 l/m 13,3 km/h (3 Bft) O-NO 57 0 min 0,000 mm 0,0 UV-I 0 W/m -8,2 C -13,4 C 19,3 km/h (3 Bft)
20.01.2013 00:50 -6,4 C 87 % 998,3 hPa 0,0 l/m 10,4 km/h (2 Bft) O-NO 70 0 min 0,000 mm 0,0 UV-I 0 W/m -8,2 C -10,9 C 17,7 km/h (3 Bft)
20.01.2013 00:55 -6,4 C 87 % 998,3 hPa 0,0 l/m 8,5 km/h (2 Bft) NO 41 0 min 0,000 mm 0,0 UV-I 0 W/m -8,2 C -8,9 C 22,5 km/h (4 Bft)
20.01.2013 01:00 -6,4 C 87 % 998,3 hPa 0,0 l/m 7,2 km/h (2 Bft) O-NO 76 0 min 0,000 mm 0,0 UV-I 0 W/m -8,2 C -7,4 C 14,5 km/h (3 Bft)
20.01.2013 01:05 -6,4 C 88 % 998,3 hPa 0,0 l/m 5,9 km/h (2 Bft) NO 55 0 min 0,000 mm 0,0 UV-I 0 W/m -8,1 C -6,4 C 14,5 km/h (3 Bft)
20.01.2013 01:10 -6,4 C 87 % 998,3 hPa 0,0 l/m 7,3 km/h (2 Bft) O-NO 60 0 min 0,000 mm 0,0 UV-I 0 W/m -8,2 C -7,5 C 17,7 km/h (3 Bft)
20.01.2013 01:15 -6,4 C 87 % 998,3 hPa 0,0 l/m 7,4 km/h (2 Bft) O-NO 65 0 min 0,000 mm 0,0 UV-I 0 W/m -8,2 C -7,6 C 20,9 km/h (4 Bft)
20.01.2013 01:20 -6,4 C 87 % 998,3 hPa 0,0 l/m 9,5 km/h (2 Bft) NO 53 0 min 0,000 mm 0,0 UV-I 0 W/m -8,2 C -10,0 C 17,7 km/h (3 Bft)
20.01.2013 01:25 -6,4 C 87 % 998,2 hPa 0,0 l/m 10,2 km/h (2 Bft) NO 55 0 min 0,000 mm 0,0 UV-I 0 W/m -8,2 C -10,7 C 27,4 km/h (4 Bft)
20.01.2013 01:30 -6,4 C 87 % 998,1 hPa 0,0 l/m 10,4 km/h (2 Bft) NO 41 0 min 0,000 mm 0,0 UV-I 0 W/m -8,2 C -10,9 C 20,9 km/h (4 Bft)
20.01.2013 01:35 -6,4 C 87 % 998,1 hPa 0,0 l/m 5,6 km/h (1 Bft) O-NO 65 0 min 0,000 mm 0,0 UV-I 0 W/m -8,2 C -6,4 C 14,5 km/h (3 Bft)
20.01.2013 01:40 -6,4 C 88 % 998,0 hPa 0,0 l/m 5,1 km/h (1 Bft) NO 44 0 min 0,000 mm 0,0 UV-I 0 W/m -8,1 C -6,4 C 14,5 km/h (3 Bft)
20.01.2013 01:45 -6,4 C 88 % 998,0 hPa 0,0 l/m 7,5 km/h (2 Bft) O-NO 71 0 min 0,000 mm 0,0 UV-I 0 W/m -8,1 C -7,8 C 17,7 km/h (3 Bft)
20.01.2013 01:50 -6,5 C 88 % 997,9 hPa 0,0 l/m 9,0 km/h (2 Bft) N-NO 28 0 min 0,000 mm 0,0 UV-I 0 W/m -8,1 C -9,6 C 17,7 km/h (3 Bft)
20.01.2013 01:55 -6,5 C 88 % 997,9 hPa 0,0 l/m 7,0 km/h (2 Bft) O-NO 73 0 min 0,000 mm 0,0 UV-I 0 W/m -8,1 C -7,2 C 20,9 km/h (4 Bft)
20.01.2013 02:00 -6,5 C 88 % 997,9 hPa 0,0 l/m 8,9 km/h (2 Bft) NO 40 0 min 0,000 mm 0,0 UV-I 0 W/m -8,1 C -9,5 C 19,3 km/h (3 Bft)
20.01.2013 02:05 -6,5 C 88 % 998,0 hPa 0,0 l/m 11,3 km/h (2 Bft) NO 44 0 min 0,000 mm 0,0 UV-I 0 W/m -8,1 C -11,9 C 20,9 km/h (4 Bft)
20.01.2013 02:10 -6,5 C 88 % 997,9 hPa 0,0 l/m 7,4 km/h (2 Bft) O-NO 61 0 min 0,000 mm 0,0 UV-I 0 W/m -8,1 C -7,7 C 17,7 km/h (3 Bft)
20.01.2013 02:15 -6,5 C 88 % 998,0 hPa 0,0 l/m 5,7 km/h (1 Bft) O-NO 67 0 min 0,000 mm 0,0 UV-I 0 W/m -8,1 C -6,5 C 14,5 km/h (3 Bft)
20.01.2013 02:20 -6,5 C 88 % 998,0 hPa 0,0 l/m 9,0 km/h (2 Bft) O-NO 58 0 min 0,000 mm 0,0 UV-I 0 W/m -8,1 C -9,6 C 16,1 km/h (3 Bft)
20.01.2013 02:25 -6,5 C 88 % 998,0 hPa 0,0 l/m 7,5 km/h (2 Bft) O-NO 77 0 min 0,000 mm 0,0 UV-I 0 W/m -8,1 C -7,9 C 16,1 km/h (3 Bft)
20.01.2013 02:30 -6,5 C 88 % 998,0 hPa 0,0 l/m 7,1 km/h (2 Bft) N 5 0 min 0,000 mm 0,0 UV-I 0 W/m -8,1 C -7,4 C 16,1 km/h (3 Bft)
20.01.2013 02:35 -6,5 C 88 % 997,9 hPa 0,0 l/m 5,7 km/h (1 Bft) O-NO 65 0 min 0,000 mm 0,0 UV-I 0 W/m -8,1 C -6,5 C 14,5 km/h (3 Bft)
20.01.2013 02:40 -6,5 C 88 % 997,9 hPa 0,0 l/m 10,7 km/h (2 Bft) O-NO 57 0 min 0,000 mm 0,0 UV-I 0 W/m -8,1 C -11,3 C 20,9 km/h (4 Bft)
20.01.2013 02:45 -6,6 C 88 % 997,9 hPa 0,0 l/m 8,8 km/h (2 Bft) NO 50 0 min 0,000 mm 0,0 UV-I 0 W/m -8,2 C -9,5 C 17,7 km/h (3 Bft)
20.01.2013 02:50 -6,6 C 88 % 997,8 hPa 0,0 l/m 12,0 km/h (2 Bft) NO 44 0 min 0,000 mm 0,0 UV-I 0 W/m -8,2 C -12,6 C 22,5 km/h (4 Bft)
20.01.2013 02:55 -6,5 C 88 % 997,8 hPa 0,0 l/m 8,3 km/h (2 Bft) O-NO 57 0 min 0,000 mm 0,0 UV-I 0 W/m -8,1 C -8,8 C 20,9 km/h (4 Bft)
20.01.2013 03:00 -6,5 C 88 % 997,9 hPa 0,0 l/m 11,4 km/h (2 Bft) O-NO 61 0 min 0,000 mm 0,0 UV-I 0 W/m -8,1 C -12,0 C 20,9 km/h (4 Bft)
20.01.2013 03:05 -6,5 C 88 % 997,9 hPa 0,0 l/m 10,1 km/h (2 Bft) NO 54 0 min 0,000 mm 0,0 UV-I 0 W/m -8,1 C -10,7 C 17,7 km/h (3 Bft)
20.01.2013 03:10 -6,5 C 88 % 997,8 hPa 0,0 l/m 6,2 km/h (2 Bft) N-NO 33 0 min 0,000 mm 0,0 UV-I 0 W/m -8,1 C -6,5 C 12,9 km/h (3 Bft)
20.01.2013 03:15 -6,5 C 88 % 997,8 hPa 0,0 l/m 9,6 km/h (2 Bft) O-NO 57 0 min 0,000 mm 0,0 UV-I 0 W/m -8,1 C -10,2 C 16,1 km/h (3 Bft)
20.01.2013 03:20 -6,5 C 88 % 997,7 hPa 0,0 l/m 7,3 km/h (2 Bft) N 355 0 min 0,000 mm 0,0 UV-I 0 W/m -8,1 C -7,6 C 19,3 km/h (3 Bft)
20.01.2013 03:25 -6,5 C 88 % 997,7 hPa 0,0 l/m 9,9 km/h (2 Bft) O-NO 59 0 min 0,000 mm 0,0 UV-I 0 W/m -8,1 C -10,5 C 20,9 km/h (4 Bft)
20.01.2013 03:30 -6,4 C 88 % 997,8 hPa 0,0 l/m 9,3 km/h (2 Bft) O-NO 58 0 min 0,000 mm 0,0 UV-I 0 W/m -8,1 C -9,8 C 30,6 km/h (5 Bft)
20.01.2013 03:35 -6,4 C 88 % 997,7 hPa 0,0 l/m 9,5 km/h (2 Bft) NW 321 0 min 0,000 mm 0,0 UV-I 0 W/m -8,1 C -10,0 C 20,9 km/h (4 Bft)
20.01.2013 03:40 -6,4 C 88 % 997,7 hPa 0,0 l/m 7,4 km/h (2 Bft) NO 55 0 min 0,000 mm 0,0 UV-I 0 W/m -8,1 C -7,6 C 16,1 km/h (3 Bft)
20.01.2013 03:45 -6,4 C 88 % 997,7 hPa 0,0 l/m 7,6 km/h (2 Bft) NO 42 0 min 0,000 mm 0,0 UV-I 0 W/m -8,1 C -7,9 C 20,9 km/h (4 Bft)
20.01.2013 03:50 -6,4 C 88 % 997,5 hPa 0,0 l/m 8,4 km/h (2 Bft) N-NO 30 0 min 0,000 mm 0,0 UV-I 0 W/m -8,1 C -8,8 C 17,7 km/h (3 Bft)
20.01.2013 03:55 -6,4 C 88 % 997,5 hPa 0,0 l/m 12,4 km/h (3 Bft) NO 46 0 min 0,000 mm 0,0 UV-I 0 W/m -8,1 C -12,7 C 22,5 km/h (4 Bft)
20.01.2013 04:00 -6,4 C 88 % 997,5 hPa 0,0 l/m 9,8 km/h (2 Bft) NO 53 0 min 0,000 mm 0,0 UV-I 0 W/m -8,1 C -10,3 C 19,3 km/h (3 Bft)
20.01.2013 04:05 -6,5 C 88 % 997,4 hPa 0,0 l/m 10,9 km/h (2 Bft) O-NO 57 0 min 0,000 mm 0,0 UV-I 0 W/m -8,1 C -11,5 C 19,3 km/h (3 Bft)
20.01.2013 04:10 -6,5 C 88 % 997,3 hPa 0,0 l/m 13,5 km/h (3 Bft) O-NO 71 0 min 0,000 mm 0,0 UV-I 0 W/m -8,1 C -13,7 C 24,1 km/h (4 Bft)
20.01.2013 04:15 -6,5 C 88 % 997,3 hPa 0,0 l/m 8,7 km/h (2 Bft) O-NO 62 0 min 0,000 mm 0,0 UV-I 0 W/m -8,1 C -9,3 C 22,5 km/h (4 Bft)
20.01.2013 04:20 -6,5 C 88 % 997,3 hPa 0,0 l/m 12,6 km/h (3 Bft) O-NO 68 0 min 0,000 mm 0,0 UV-I 0 W/m -8,1 C -13,0 C 22,5 km/h (4 Bft)
20.01.2013 04:25 -6,5 C 88 % 997,3 hPa 0,0 l/m 12,5 km/h (3 Bft) NO 54 0 min 0,000 mm 0,0 UV-I 0 W/m -8,1 C -12,9 C 24,1 km/h (4 Bft)
20.01.2013 04:30 -6,5 C 88 % 997,4 hPa 0,0 l/m 5,4 km/h (1 Bft) N-NO 32 0 min 0,000 mm 0,0 UV-I 0 W/m -8,1 C -6,5 C 12,9 km/h (3 Bft)
20.01.2013 04:35 -6,5 C 88 % 997,3 hPa 0,0 l/m 7,8 km/h (2 Bft) NO 51 0 min 0,000 mm 0,0 UV-I 0 W/m -8,1 C -8,2 C 24,1 km/h (4 Bft)
20.01.2013 04:40 -6,5 C 88 % 997,4 hPa 0,0 l/m 8,6 km/h (2 Bft) O 79 0 min 0,000 mm 0,0 UV-I 0 W/m -8,1 C -9,2 C 19,3 km/h (3 Bft)
20.01.2013 04:45 -6,5 C 88 % 997,4 hPa 0,0 l/m 6,4 km/h (2 Bft) O-NO 66 0 min 0,000 mm 0,0 UV-I 0 W/m -8,1 C -6,4 C 14,5 km/h (3 Bft)
20.01.2013 04:50 -6,5 C 88 % 997,4 hPa 0,0 l/m 6,0 km/h (2 Bft) NO 34 0 min 0,000 mm 0,0 UV-I 0 W/m -8,1 C -6,5 C 16,1 km/h (3 Bft)
20.01.2013 04:55 -6,5 C 88 % 997,2 hPa 0,0 l/m 8,9 km/h (2 Bft) NO 36 0 min 0,000 mm 0,0 UV-I 0 W/m -8,1 C -9,5 C 17,7 km/h (3 Bft)
20.01.2013 05:00 -6,6 C 88 % 997,1 hPa 0,0 l/m 9,0 km/h (2 Bft) O-SO 105 0 min 0,000 mm 0,0 UV-I 0 W/m -8,2 C -9,7 C 17,7 km/h (3 Bft)
20.01.2013 05:05 -6,6 C 88 % 997,0 hPa 0,0 l/m 10,2 km/h (2 Bft) O-NO 69 0 min 0,000 mm 0,0 UV-I 0 W/m -8,2 C -10,9 C 24,1 km/h (4 Bft)
20.01.2013 05:10 -6,6 C 88 % 997,0 hPa 0,0 l/m 11,2 km/h (2 Bft) NO 49 0 min 0,000 mm 0,0 UV-I 0 W/m -8,2 C -11,9 C 19,3 km/h (3 Bft)
20.01.2013 05:15 -6,6 C 88 % 997,0 hPa 0,0 l/m 15,0 km/h (3 Bft) O-NO 61 0 min 0,000 mm 0,0 UV-I 0 W/m -8,2 C -15,0 C 30,6 km/h (5 Bft)
20.01.2013 05:20 -6,6 C 88 % 997,1 hPa 0,0 l/m 12,8 km/h (3 Bft) O-NO 63 0 min 0,000 mm 0,0 UV-I 0 W/m -8,2 C -13,3 C 22,5 km/h (4 Bft)
20.01.2013 05:25 -6,6 C 88 % 997,3 hPa 0,0 l/m 11,9 km/h (2 Bft) O-NO 61 0 min 0,000 mm 0,0 UV-I 0 W/m -8,2 C -12,5 C 20,9 km/h (4 Bft)
20.01.2013 05:30 -6,6 C 88 % 997,3 hPa 0,0 l/m 6,2 km/h (2 Bft) NO 44 0 min 0,000 mm 0,0 UV-I 0 W/m -8,2 C -6,6 C 16,1 km/h (3 Bft)
20.01.2013 05:35 -6,6 C 88 % 997,3 hPa 0,0 l/m 6,6 km/h (2 Bft) O-NO 59 0 min 0,000 mm 0,0 UV-I 0 W/m -8,2 C -6,8 C 17,7 km/h (3 Bft)
20.01.2013 05:40 -6,6 C 88 % 997,2 hPa 0,0 l/m 9,3 km/h (2 Bft) O-NO 57 0 min 0,000 mm 0,0 UV-I 0 W/m -8,2 C -10,0 C 20,9 km/h (4 Bft)
20.01.2013 05:45 -6,6 C 88 % 997,2 hPa 0,0 l/m 7,7 km/h (2 Bft) O-NO 62 0 min 0,000 mm 0,0 UV-I 0 W/m -8,2 C -8,2 C 19,3 km/h (3 Bft)
20.01.2013 05:50 -6,6 C 88 % 997,1 hPa 0,0 l/m 10,7 km/h (2 Bft) NO 51 0 min 0,000 mm 0,0 UV-I 0 W/m -8,2 C -11,4 C 22,5 km/h (4 Bft)
20.01.2013 05:55 -6,6 C 88 % 997,1 hPa 0,0 l/m 8,5 km/h (2 Bft) O-NO 64 0 min 0,000 mm 0,0 UV-I 0 W/m -8,2 C -9,2 C 19,3 km/h (3 Bft)
20.01.2013 06:00 -6,6 C 88 % 997,1 hPa 0,0 l/m 9,2 km/h (2 Bft) N-NO 32 0 min 0,000 mm 0,0 UV-I 0 W/m -8,2 C -9,9 C 20,9 km/h (4 Bft)
20.01.2013 06:05 -6,6 C 88 % 997,1 hPa 0,0 l/m 8,6 km/h (2 Bft) NO 44 0 min 0,000 mm 0,0 UV-I 0 W/m -8,2 C -9,3 C 22,5 km/h (4 Bft)
20.01.2013 06:10 -6,6 C 88 % 997,1 hPa 0,0 l/m 10,1 km/h (2 Bft) NO 56 0 min 0,000 mm 0,0 UV-I 0 W/m -8,2 C -10,8 C 20,9 km/h (4 Bft)
20.01.2013 06:15 -6,5 C 88 % 997,1 hPa 0,0 l/m 7,7 km/h (2 Bft) O-NO 57 0 min 0,000 mm 0,0 UV-I 0 W/m -8,1 C -8,1 C 20,9 km/h (4 Bft)
20.01.2013 06:20 -6,5 C 88 % 997,1 hPa 0,0 l/m 10,7 km/h (2 Bft) NO 37 0 min 0,000 mm 0,0 UV-I 0 W/m -8,1 C -11,3 C 22,5 km/h (4 Bft)
20.01.2013 06:25 -6,5 C 88 % 997,1 hPa 0,0 l/m 10,2 km/h (2 Bft) O-NO 57 0 min 0,000 mm 0,0 UV-I 0 W/m -8,1 C -10,8 C 19,3 km/h (3 Bft)
20.01.2013 06:30 -6,5 C 88 % 997,3 hPa 0,0 l/m 8,7 km/h (2 Bft) NO 49 0 min 0,000 mm 0,0 UV-I 0 W/m -8,1 C -9,3 C 17,7 km/h (3 Bft)
20.01.2013 06:35 -6,4 C 88 % 997,3 hPa 0,0 l/m 9,3 km/h (2 Bft) O-NO 61 0 min 0,000 mm 0,0 UV-I 0 W/m -8,1 C -9,8 C 16,1 km/h (3 Bft)
20.01.2013 06:40 -6,5 C 88 % 997,3 hPa 0,0 l/m 7,7 km/h (2 Bft) NO 38 0 min 0,000 mm 0,0 UV-I 0 W/m -8,1 C -8,1 C 17,7 km/h (3 Bft)
20.01.2013 06:45 -6,5 C 88 % 997,3 hPa 0,0 l/m 10,2 km/h (2 Bft) NO 49 0 min 0,000 mm 0,0 UV-I 0 W/m -8,1 C -10,8 C 20,9 km/h (4 Bft)
20.01.2013 06:50 -6,5 C 88 % 997,1 hPa 0,0 l/m 10,3 km/h (2 Bft) NO 42 0 min 0,000 mm 0,0 UV-I 0 W/m -8,1 C -10,9 C 17,7 km/h (3 Bft)
20.01.2013 06:55 -6,6 C 89 % 997,1 hPa 0,0 l/m 10,8 km/h (2 Bft) NO 42 0 min 0,000 mm 0,0 UV-I 0 W/m -8,1 C -11,5 C 19,3 km/h (3 Bft)
20.01.2013 07:00 -6,6 C 88 % 997,1 hPa 0,0 l/m 12,6 km/h (3 Bft) O-NO 57 0 min 0,000 mm 0,0 UV-I 0 W/m -8,2 C -13,1 C 20,9 km/h (4 Bft)
20.01.2013 07:05 -6,6 C 89 % 997,1 hPa 0,0 l/m 9,1 km/h (2 Bft) NO 52 0 min 0,000 mm 0,0 UV-I 0 W/m -8,1 C -9,8 C 17,7 km/h (3 Bft)
20.01.2013 07:10 -6,6 C 89 % 997,0 hPa 0,0 l/m 9,0 km/h (2 Bft) N-NO 25 0 min 0,000 mm 0,0 UV-I 0 W/m -8,1 C -9,7 C 17,7 km/h (3 Bft)
20.01.2013 07:15 -6,6 C 89 % 996,9 hPa 0,0 l/m 7,9 km/h (2 Bft) NO 41 0 min 0,000 mm 0,0 UV-I 0 W/m -8,1 C -8,5 C 17,7 km/h (3 Bft)
20.01.2013 07:20 -6,6 C 89 % 996,9 hPa 0,0 l/m 8,6 km/h (2 Bft) NO 52 0 min 0,000 mm 0,0 UV-I 0 W/m -8,1 C -9,3 C 20,9 km/h (4 Bft)
20.01.2013 07:25 -6,6 C 89 % 996,9 hPa 0,0 l/m 9,2 km/h (2 Bft) NO 43 0 min 0,000 mm 0,0 UV-I 0 W/m -8,1 C -9,9 C 19,3 km/h (3 Bft)
20.01.2013 07:30 -6,6 C 89 % 997,0 hPa 0,0 l/m 11,2 km/h (2 Bft) O-NO 71 0 min 0,000 mm 0,0 UV-I 0 W/m -8,1 C -11,9 C 22,5 km/h (4 Bft)
20.01.2013 07:35 -6,7 C 89 % 997,1 hPa 0,0 l/m 10,0 km/h (2 Bft) O-NO 74 0 min 0,000 mm 0,0 UV-I 0 W/m -8,2 C -10,9 C 22,5 km/h (4 Bft)
20.01.2013 07:40 -6,7 C 90 % 997,1 hPa 0,0 l/m 9,2 km/h (2 Bft) O-NO 59 0 min 0,000 mm 0,0 UV-I 0 W/m -8,1 C -10,0 C 16,1 km/h (3 Bft)
20.01.2013 07:45 -6,7 C 90 % 997,0 hPa 0,0 l/m 5,6 km/h (1 Bft) NO 45 0 min 0,000 mm 0,0 UV-I 0 W/m -8,1 C -6,7 C 11,3 km/h (2 Bft)
20.01.2013 07:50 -6,7 C 90 % 997,0 hPa 0,0 l/m 5,6 km/h (1 Bft) NO 47 0 min 0,000 mm 0,0 UV-I 0 W/m -8,1 C -6,7 C 12,9 km/h (3 Bft)
20.01.2013 07:55 -6,7 C 90 % 996,9 hPa 0,0 l/m 6,2 km/h (2 Bft) O-NO 62 0 min 0,000 mm 0,0 UV-I 0 W/m -8,1 C -6,7 C 12,9 km/h (3 Bft)
20.01.2013 08:00 -6,7 C 90 % 997,0 hPa 0,0 l/m 6,1 km/h (2 Bft) O-NO 61 0 min 0,000 mm 0,0 UV-I 0 W/m -8,1 C -6,7 C 14,5 km/h (3 Bft)
20.01.2013 08:05 -6,6 C 90 % 997,1 hPa 0,0 l/m 3,3 km/h (1 Bft) O-NO 61 0 min 0,000 mm 0,0 UV-I 0 W/m -8,0 C -6,6 C 8,0 km/h (2 Bft)
20.01.2013 08:10 -6,6 C 90 % 997,1 hPa 0,0 l/m 4,1 km/h (1 Bft) O-NO 61 0 min 0,000 mm 0,0 UV-I 0 W/m -8,0 C -6,6 C 12,9 km/h (3 Bft)
20.01.2013 08:15 -6,6 C 90 % 997,0 hPa 0,0 l/m 4,8 km/h (1 Bft) N-NO 26 0 min 0,000 mm 0,0 UV-I 0 W/m -8,0 C -6,6 C 14,5 km/h (3 Bft)
20.01.2013 08:20 -6,6 C 90 % 997,0 hPa 0,0 l/m 5,5 km/h (1 Bft) NO 40 0 min 0,000 mm 0,0 UV-I 0 W/m -8,0 C -6,6 C 17,7 km/h (3 Bft)
20.01.2013 08:25 -6,6 C 90 % 997,0 hPa 0,0 l/m 7,0 km/h (2 Bft) O-NO 63 0 min 0,000 mm 0,0 UV-I 0 W/m -8,0 C -7,3 C 12,9 km/h (3 Bft)
20.01.2013 08:30 -6,6 C 91 % 997,1 hPa 0,0 l/m 5,4 km/h (1 Bft) NO 55 0 min 0,000 mm 0,0 UV-I 0 W/m -7,8 C -6,6 C 11,3 km/h (2 Bft)
20.01.2013 08:35 -6,6 C 91 % 997,0 hPa 0,0 l/m 6,0 km/h (2 Bft) O-NO 66 0 min 0,000 mm 0,0 UV-I 0 W/m -7,8 C -6,6 C 17,7 km/h (3 Bft)
20.01.2013 08:40 -6,6 C 91 % 997,1 hPa 0,0 l/m 10,6 km/h (2 Bft) O-NO 65 0 min 0,000 mm 0,0 UV-I 5 W/m -7,8 C -11,3 C 19,3 km/h (3 Bft)
20.01.2013 08:45 -6,6 C 91 % 997,0 hPa 0,0 l/m 8,6 km/h (2 Bft) O-NO 76 0 min 0,000 mm 0,0 UV-I 5 W/m -7,8 C -9,3 C 17,7 km/h (3 Bft)
20.01.2013 08:50 -6,6 C 91 % 997,1 hPa 0,0 l/m 7,9 km/h (2 Bft) NO 53 0 min 0,000 mm 0,0 UV-I 7 W/m -7,8 C -8,5 C 16,1 km/h (3 Bft)
20.01.2013 08:55 -6,6 C 91 % 997,2 hPa 0,0 l/m 6,7 km/h (2 Bft) NO 36 0 min 0,000 mm 0,0 UV-I 7 W/m -7,8 C -7,0 C 14,5 km/h (3 Bft)
20.01.2013 09:00 -6,6 C 91 % 997,3 hPa 0,2 l/m 6,7 km/h (2 Bft) O-NO 69 0 min 0,000 mm 0,0 UV-I 9 W/m -7,8 C -7,0 C 16,1 km/h (3 Bft)
20.01.2013 09:05 -6,5 C 91 % 997,3 hPa 0,0 l/m 7,3 km/h (2 Bft) O-NO 60 0 min 0,000 mm 0,0 UV-I 11 W/m -7,7 C -7,6 C 16,1 km/h (3 Bft)
20.01.2013 09:10 -6,5 C 91 % 997,3 hPa 0,0 l/m 6,7 km/h (2 Bft) O-NO 68 0 min 0,000 mm 0,0 UV-I 12 W/m -7,7 C -6,9 C 14,5 km/h (3 Bft)
20.01.2013 09:15 -6,4 C 91 % 997,4 hPa 0,0 l/m 8,7 km/h (2 Bft) O-NO 61 0 min 0,000 mm 0,0 UV-I 14 W/m -7,6 C -9,2 C 16,1 km/h (3 Bft)
20.01.2013 09:20 -6,4 C 91 % 997,3 hPa 0,0 l/m 9,9 km/h (2 Bft) NO 55 0 min 0,000 mm 0,0 UV-I 18 W/m -7,6 C -10,4 C 19,3 km/h (3 Bft)
20.01.2013 09:25 -6,5 C 91 % 997,3 hPa 0,0 l/m 11,4 km/h (2 Bft) O-NO 71 0 min 0,000 mm 0,0 UV-I 23 W/m -7,7 C -12,0 C 20,9 km/h (4 Bft)
20.01.2013 09:30 -6,4 C 91 % 997,5 hPa 0,0 l/m 10,7 km/h (2 Bft) N-NO 26 0 min 0,000 mm 0,0 UV-I 30 W/m -7,6 C -11,2 C 19,3 km/h (3 Bft)
20.01.2013 09:35 -6,4 C 91 % 997,4 hPa 0,2 l/m 10,4 km/h (2 Bft) NO 35 0 min 0,000 mm 0,0 UV-I 33 W/m -7,6 C -10,9 C 17,7 km/h (3 Bft)
20.01.2013 09:40 -6,4 C 91 % 997,5 hPa 0,0 l/m 9,0 km/h (2 Bft) O-NO 71 0 min 0,000 mm 0,0 UV-I 32 W/m -7,6 C -9,5 C 16,1 km/h (3 Bft)
20.01.2013 09:45 -6,4 C 91 % 997,3 hPa 0,0 l/m 12,0 km/h (2 Bft) NO 50 0 min 0,000 mm 0,0 UV-I 37 W/m -7,6 C -12,4 C 20,9 km/h (4 Bft)
20.01.2013 09:50 -6,3 C 91 % 997,3 hPa 0,0 l/m 9,1 km/h (2 Bft) NO 54 0 min 0,000 mm 0,0 UV-I 40 W/m -7,5 C -9,5 C 16,1 km/h (3 Bft)
20.01.2013 09:55 -6,3 C 92 % 997,4 hPa 0,0 l/m 8,0 km/h (2 Bft) N-NO 33 0 min 0,000 mm 0,0 UV-I 39 W/m -7,4 C -8,3 C 16,1 km/h (3 Bft)
20.01.2013 10:00 -6,2 C 92 % 997,2 hPa 0,0 l/m 5,2 km/h (1 Bft) NO 52 0 min 0,000 mm 0,0 UV-I 37 W/m -7,3 C -6,2 C 20,9 km/h (4 Bft)
20.01.2013 10:05 -6,2 C 92 % 997,0 hPa 0,0 l/m 10,0 km/h (2 Bft) NO 39 0 min 0,000 mm 0,0 UV-I 37 W/m -7,3 C -10,3 C 20,9 km/h (4 Bft)
20.01.2013 10:10 -6,2 C 92 % 997,0 hPa 0,0 l/m 5,0 km/h (1 Bft) NO 42 0 min 0,000 mm 0,0 UV-I 37 W/m -7,3 C -6,2 C 12,9 km/h (3 Bft)
20.01.2013 10:15 -6,2 C 92 % 996,9 hPa 0,0 l/m 10,6 km/h (2 Bft) NO 50 0 min 0,000 mm 0,0 UV-I 39 W/m -7,3 C -10,9 C 22,5 km/h (4 Bft)
20.01.2013 10:20 -6,2 C 92 % 996,8 hPa 0,0 l/m 5,9 km/h (2 Bft) O-NO 65 0 min 0,000 mm 0,0 UV-I 46 W/m -7,3 C -6,2 C 12,9 km/h (3 Bft)
20.01.2013 10:25 -6,1 C 92 % 996,9 hPa 0,0 l/m 9,2 km/h (2 Bft) O-NO 68 0 min 0,000 mm 0,0 UV-I 47 W/m -7,2 C -9,4 C 22,5 km/h (4 Bft)
20.01.2013 10:30 -6,2 C 92 % 996,9 hPa 0,0 l/m 11,5 km/h (2 Bft) NO 51 0 min 0,000 mm 0,0 UV-I 44 W/m -7,3 C -11,7 C 20,9 km/h (4 Bft)
20.01.2013 10:35 -6,2 C 92 % 996,7 hPa 0,0 l/m 10,0 km/h (2 Bft) O-NO 61 0 min 0,000 mm 0,0 UV-I 47 W/m -7,3 C -10,3 C 22,5 km/h (4 Bft)
20.01.2013 10:40 -6,1 C 92 % 996,8 hPa 0,0 l/m 11,3 km/h (2 Bft) N-NO 22 0 min 0,000 mm 0,0 UV-I 58 W/m -7,2 C -11,4 C 22,5 km/h (4 Bft)
20.01.2013 10:45 -6,1 C 92 % 996,9 hPa 0,0 l/m 10,4 km/h (2 Bft) NO 49 0 min 0,000 mm 0,0 UV-I 53 W/m -7,2 C -10,6 C 24,1 km/h (4 Bft)
20.01.2013 10:50 -6,1 C 92 % 996,9 hPa 0,0 l/m 8,6 km/h (2 Bft) NO 47 0 min 0,000 mm 0,0 UV-I 42 W/m -7,2 C -8,7 C 17,7 km/h (3 Bft)
20.01.2013 10:55 -6,1 C 92 % 996,9 hPa 0,0 l/m 7,7 km/h (2 Bft) O-NO 69 0 min 0,000 mm 0,0 UV-I 44 W/m -7,2 C -7,7 C 17,7 km/h (3 Bft)
20.01.2013 11:00 -6,0 C 92 % 997,0 hPa 0,0 l/m 6,1 km/h (2 Bft) O-NO 57 0 min 0,000 mm 0,0 UV-I 46 W/m -7,1 C -6,0 C 17,7 km/h (3 Bft)
20.01.2013 11:05 -6,0 C 92 % 997,0 hPa 0,0 l/m 4,4 km/h (1 Bft) NO 51 0 min 0,025 mm 0,0 UV-I 42 W/m -7,1 C -6,0 C 11,3 km/h (2 Bft)
20.01.2013 11:10 -5,9 C 92 % 997,0 hPa 0,0 l/m 3,9 km/h (1 Bft) NO 50 0 min 0,000 mm 0,0 UV-I 44 W/m -7,0 C -5,9 C 14,5 km/h (3 Bft)
20.01.2013 11:15 -5,9 C 93 % 997,0 hPa 0,0 l/m 2,4 km/h (1 Bft) O-NO 61 0 min 0,000 mm 0,0 UV-I 46 W/m -6,8 C -5,9 C 8,0 km/h (2 Bft)
20.01.2013 11:20 -5,8 C 93 % 997,0 hPa 0,0 l/m 5,3 km/h (1 Bft) NO 47 0 min 0,000 mm 0,0 UV-I 40 W/m -6,7 C -5,8 C 12,9 km/h (3 Bft)
20.01.2013 11:25 -5,8 C 93 % 997,1 hPa 0,0 l/m 1,9 km/h (1 Bft) O-NO 76 0 min 0,000 mm 0,0 UV-I 39 W/m -6,7 C -5,8 C 6,4 km/h (2 Bft)
20.01.2013 11:30 -5,8 C 93 % 997,2 hPa 0,2 l/m 5,4 km/h (1 Bft) O-NO 57 0 min 0,000 mm 0,0 UV-I 54 W/m -6,7 C -5,8 C 12,9 km/h (3 Bft)
20.01.2013 11:35 -5,8 C 93 % 997,2 hPa 0,0 l/m 5,1 km/h (1 Bft) O-NO 63 0 min 0,000 mm 0,0 UV-I 76 W/m -6,7 C -5,8 C 14,5 km/h (3 Bft)
20.01.2013 11:40 -5,7 C 93 % 997,2 hPa 0,2 l/m 5,1 km/h (1 Bft) NO 45 0 min 0,000 mm 0,0 UV-I 86 W/m -6,6 C -5,7 C 12,9 km/h (3 Bft)
20.01.2013 11:45 -5,7 C 93 % 997,1 hPa 0,0 l/m 9,9 km/h (2 Bft) O-NO 61 0 min 0,000 mm 0,0 UV-I 84 W/m -6,6 C -9,6 C 19,3 km/h (3 Bft)
20.01.2013 11:50 -5,7 C 93 % 997,0 hPa 0,0 l/m 8,3 km/h (2 Bft) NO 56 0 min 0,000 mm 0,5 UV-I 113 W/m -6,6 C -8,0 C 20,9 km/h (4 Bft)
20.01.2013 11:55 -5,6 C 93 % 996,9 hPa 0,0 l/m 6,6 km/h (2 Bft) O-NO 64 5 min 0,000 mm 0,6 UV-I 192 W/m -6,5 C -5,8 C 12,9 km/h (3 Bft)
20.01.2013 12:00 -5,6 C 93 % 997,0 hPa 0,0 l/m 9,9 km/h (2 Bft) O-NO 57 0 min 0,000 mm 0,6 UV-I 174 W/m -6,5 C -9,5 C 20,9 km/h (4 Bft)
20.01.2013 12:05 -5,5 C 93 % 997,2 hPa 0,2 l/m 5,8 km/h (2 Bft) O-NO 64 0 min 0,026 mm 0,5 UV-I 132 W/m -6,4 C -5,5 C 12,9 km/h (3 Bft)
20.01.2013 12:10 -5,4 C 93 % 996,9 hPa 0,0 l/m 11,2 km/h (2 Bft) O-NO 76 5 min 0,000 mm 0,6 UV-I 185 W/m -6,3 C -10,5 C 17,7 km/h (3 Bft)
20.01.2013 12:15 -5,4 C 93 % 997,1 hPa 0,0 l/m 7,6 km/h (2 Bft) O-NO 66 0 min 0,000 mm 0,5 UV-I 91 W/m -6,3 C -6,9 C 14,5 km/h (3 Bft)
20.01.2013 12:20 -5,4 C 93 % 997,1 hPa 0,0 l/m 9,9 km/h (2 Bft) NO 54 0 min 0,000 mm 0,5 UV-I 86 W/m -6,3 C -9,3 C 19,3 km/h (3 Bft)
20.01.2013 12:25 -5,3 C 93 % 997,1 hPa 0,0 l/m 6,6 km/h (2 Bft) O 89 0 min 0,000 mm 0,5 UV-I 120 W/m -6,2 C -5,5 C 12,9 km/h (3 Bft)
20.01.2013 12:30 -5,3 C 93 % 997,0 hPa 0,0 l/m 8,8 km/h (2 Bft) O-NO 63 0 min 0,000 mm 0,5 UV-I 113 W/m -6,2 C -8,1 C 16,1 km/h (3 Bft)
20.01.2013 12:35 -5,3 C 93 % 996,8 hPa 0,0 l/m 10,7 km/h (2 Bft) O 88 0 min 0,000 mm 0,5 UV-I 97 W/m -6,2 C -10,0 C 20,9 km/h (4 Bft)
20.01.2013 12:40 -5,3 C 93 % 996,6 hPa 0,0 l/m 9,0 km/h (2 Bft) O-NO 64 0 min 0,000 mm 0,6 UV-I 155 W/m -6,2 C -8,3 C 17,7 km/h (3 Bft)
20.01.2013 12:45 -5,2 C 93 % 996,5 hPa 0,0 l/m 8,0 km/h (2 Bft) NO 55 0 min 0,000 mm 0,5 UV-I 104 W/m -6,1 C -7,1 C 19,3 km/h (3 Bft)
20.01.2013 12:50 -5,2 C 93 % 996,4 hPa 0,0 l/m 6,3 km/h (2 Bft) NO 42 0 min 0,000 mm 0,5 UV-I 153 W/m -6,1 C -5,2 C 16,1 km/h (3 Bft)
20.01.2013 12:55 -5,1 C 93 % 996,4 hPa 0,0 l/m 6,3 km/h (2 Bft) O-NO 60 5 min 0,000 mm 0,6 UV-I 188 W/m -6,1 C -5,1 C 14,5 km/h (3 Bft)
20.01.2013 13:00 -5,0 C 93 % 996,5 hPa 0,0 l/m 8,4 km/h (2 Bft) O 79 0 min 0,000 mm 0,5 UV-I 105 W/m -6,0 C -7,3 C 17,7 km/h (3 Bft)
20.01.2013 13:05 -4,9 C 93 % 996,3 hPa 0,0 l/m 6,6 km/h (2 Bft) NO 49 0 min 0,025 mm 0,5 UV-I 104 W/m -5,9 C -5,1 C 14,5 km/h (3 Bft)
20.01.2013 13:10 -4,8 C 93 % 996,4 hPa 0,0 l/m 6,5 km/h (2 Bft) NO 49 0 min 0,000 mm 0,5 UV-I 114 W/m -5,8 C -4,9 C 14,5 km/h (3 Bft)
20.01.2013 13:15 -4,8 C 93 % 996,3 hPa 0,0 l/m 11,9 km/h (2 Bft) NO 53 0 min 0,000 mm 0,6 UV-I 169 W/m -5,8 C -10,4 C 19,3 km/h (3 Bft)
20.01.2013 13:20 -4,8 C 93 % 996,4 hPa 0,0 l/m 9,3 km/h (2 Bft) NO 49 0 min 0,000 mm 0,6 UV-I 121 W/m -5,8 C -8,1 C 17,7 km/h (3 Bft)
20.01.2013 13:25 -4,8 C 93 % 996,1 hPa 0,0 l/m 9,9 km/h (2 Bft) O-NO 67 0 min 0,000 mm 0,6 UV-I 121 W/m -5,8 C -8,7 C 17,7 km/h (3 Bft)
20.01.2013 13:30 -4,7 C 93 % 996,3 hPa 0,0 l/m 6,6 km/h (2 Bft) O-NO 59 0 min 0,000 mm 0,5 UV-I 104 W/m -5,7 C -4,9 C 12,9 km/h (3 Bft)
20.01.2013 13:35 -4,7 C 93 % 996,2 hPa 0,0 l/m 5,3 km/h (1 Bft) NO 36 0 min 0,000 mm 0,5 UV-I 86 W/m -5,7 C -4,7 C 14,5 km/h (3 Bft)
20.01.2013 13:40 -4,6 C 93 % 996,1 hPa 0,0 l/m 7,6 km/h (2 Bft) O-NO 77 0 min 0,000 mm 0,5 UV-I 76 W/m -5,6 C -6,0 C 17,7 km/h (3 Bft)
20.01.2013 13:45 -4,6 C 93 % 996,0 hPa 0,0 l/m 4,5 km/h (1 Bft) O-NO 66 0 min 0,000 mm 0,0 UV-I 69 W/m -5,6 C -4,6 C 8,0 km/h (2 Bft)
20.01.2013 13:50 -4,6 C 94 % 996,1 hPa 0,0 l/m 3,6 km/h (1 Bft) O-NO 78 0 min 0,000 mm 0,0 UV-I 44 W/m -5,4 C -4,6 C 9,7 km/h (2 Bft)
20.01.2013 13:55 -4,6 C 93 % 996,3 hPa 0,0 l/m 10,1 km/h (2 Bft) O-NO 63 0 min 0,000 mm 0,0 UV-I 54 W/m -5,6 C -8,6 C 17,7 km/h (3 Bft)
20.01.2013 14:00 -4,7 C 93 % 996,4 hPa 0,0 l/m 8,0 km/h (2 Bft) O-NO 57 0 min 0,000 mm 0,0 UV-I 54 W/m -5,7 C -6,6 C 16,1 km/h (3 Bft)
20.01.2013 14:05 -4,7 C 93 % 996,7 hPa 0,0 l/m 6,5 km/h (2 Bft) O-NO 69 0 min 0,026 mm 0,0 UV-I 40 W/m -5,7 C -4,8 C 12,9 km/h (3 Bft)
20.01.2013 14:10 -4,7 C 93 % 996,7 hPa 0,0 l/m 6,3 km/h (2 Bft) O-NO 57 0 min 0,000 mm 0,0 UV-I 51 W/m -5,7 C -4,7 C 12,9 km/h (3 Bft)
20.01.2013 14:15 -4,7 C 93 % 996,6 hPa 0,0 l/m 7,6 km/h (2 Bft) O-NO 59 0 min 0,000 mm 0,0 UV-I 60 W/m -5,7 C -6,1 C 14,5 km/h (3 Bft)
20.01.2013 14:20 -4,7 C 93 % 996,6 hPa 0,0 l/m 9,0 km/h (2 Bft) O-NO 65 0 min 0,000 mm 0,0 UV-I 65 W/m -5,7 C -7,7 C 17,7 km/h (3 Bft)
20.01.2013 14:25 -4,7 C 93 % 996,7 hPa 0,0 l/m 6,8 km/h (2 Bft) NO 55 0 min 0,000 mm 0,0 UV-I 51 W/m -5,7 C -5,2 C 14,5 km/h (3 Bft)
20.01.2013 14:30 -4,7 C 93 % 996,8 hPa 0,0 l/m 9,8 km/h (2 Bft) NO 52 0 min 0,000 mm 0,0 UV-I 44 W/m -5,7 C -8,5 C 17,7 km/h (3 Bft)
20.01.2013 14:35 -4,7 C 93 % 996,7 hPa 0,0 l/m 7,9 km/h (2 Bft) N-NO 27 0 min 0,000 mm 0,0 UV-I 39 W/m -5,7 C -6,5 C 16,1 km/h (3 Bft)
20.01.2013 14:40 -4,7 C 93 % 996,2 hPa 0,0 l/m 10,6 km/h (2 Bft) O-NO 67 0 min 0,000 mm 0,0 UV-I 44 W/m -5,7 C -9,2 C 20,9 km/h (4 Bft)
20.01.2013 14:45 -4,7 C 93 % 996,2 hPa 0,0 l/m 12,6 km/h (3 Bft) O-NO 71 0 min 0,000 mm 0,0 UV-I 42 W/m -5,7 C -10,9 C 20,9 km/h (4 Bft)
20.01.2013 14:50 -4,8 C 93 % 996,1 hPa 0,2 l/m 11,4 km/h (2 Bft) N-NO 20 0 min 0,000 mm 0,0 UV-I 37 W/m -5,8 C -10,0 C 20,9 km/h (4 Bft)
20.01.2013 14:55 -4,7 C 93 % 996,1 hPa 0,0 l/m 7,3 km/h (2 Bft) O-NO 71 0 min 0,000 mm 0,0 UV-I 35 W/m -5,7 C -5,8 C 19,3 km/h (3 Bft)
20.01.2013 15:00 -4,7 C 93 % 996,0 hPa 0,0 l/m 6,2 km/h (2 Bft) O-NO 58 0 min 0,000 mm 0,0 UV-I 32 W/m -5,7 C -4,7 C 12,9 km/h (3 Bft)
20.01.2013 15:05 -4,7 C 93 % 996,2 hPa 0,0 l/m 8,5 km/h (2 Bft) O-NO 65 0 min 0,025 mm 0,0 UV-I 26 W/m -5,7 C -7,1 C 17,7 km/h (3 Bft)
20.01.2013 15:10 -4,6 C 93 % 996,3 hPa 0,0 l/m 9,1 km/h (2 Bft) O 79 0 min 0,000 mm 0,0 UV-I 26 W/m -5,6 C -7,6 C 16,1 km/h (3 Bft)
20.01.2013 15:15 -4,6 C 94 % 996,1 hPa 0,0 l/m 11,7 km/h (2 Bft) NO 54 0 min 0,000 mm 0,0 UV-I 26 W/m -5,4 C -10,0 C 22,5 km/h (4 Bft)
20.01.2013 15:20 -4,6 C 94 % 996,1 hPa 0,0 l/m 11,3 km/h (2 Bft) O-NO 61 0 min 0,000 mm 0,0 UV-I 28 W/m -5,4 C -9,7 C 20,9 km/h (4 Bft)
20.01.2013 15:25 -4,6 C 94 % 996,1 hPa 0,0 l/m 12,4 km/h (3 Bft) O-NO 60 0 min 0,000 mm 0,0 UV-I 23 W/m -5,4 C -10,6 C 22,5 km/h (4 Bft)
20.01.2013 15:30 -4,6 C 94 % 996,2 hPa 0,0 l/m 10,6 km/h (2 Bft) O-NO 67 0 min 0,000 mm 0,0 UV-I 23 W/m -5,4 C -9,1 C 19,3 km/h (3 Bft)
20.01.2013 15:35 -4,6 C 94 % 996,3 hPa 0,0 l/m 9,6 km/h (2 Bft) O 96 0 min 0,000 mm 0,0 UV-I 19 W/m -5,4 C -8,1 C 17,7 km/h (3 Bft)
20.01.2013 15:40 -4,6 C 93 % 996,2 hPa 0,0 l/m 12,9 km/h (3 Bft) NO 43 0 min 0,000 mm 0,0 UV-I 21 W/m -5,6 C -11,0 C 20,9 km/h (4 Bft)
20.01.2013 15:45 -4,6 C 94 % 996,3 hPa 0,0 l/m 8,0 km/h (2 Bft) O-NO 67 0 min 0,000 mm 0,0 UV-I 16 W/m -5,4 C -6,5 C 14,5 km/h (3 Bft)
20.01.2013 15:50 -4,5 C 94 % 996,3 hPa 0,0 l/m 8,8 km/h (2 Bft) O-NO 65 0 min 0,000 mm 0,0 UV-I 16 W/m -5,3 C -7,2 C 14,5 km/h (3 Bft)
20.01.2013 15:55 -4,5 C 94 % 996,2 hPa 0,0 l/m 7,0 km/h (2 Bft) NO 54 0 min 0,000 mm 0,0 UV-I 16 W/m -5,3 C -5,2 C 12,9 km/h (3 Bft)
20.01.2013 16:00 -4,4 C 94 % 996,3 hPa 0,0 l/m 6,5 km/h (2 Bft) NO 56 0 min 0,000 mm 0,0 UV-I 12 W/m -5,2 C -4,5 C 14,5 km/h (3 Bft)
20.01.2013 16:05 -4,4 C 94 % 996,2 hPa 0,0 l/m 10,1 km/h (2 Bft) O-NO 65 0 min 0,000 mm 0,0 UV-I 12 W/m -5,2 C -8,4 C 17,7 km/h (3 Bft)
20.01.2013 16:10 -4,4 C 94 % 996,1 hPa 0,0 l/m 10,2 km/h (2 Bft) O 86 0 min 0,000 mm 0,0 UV-I 12 W/m -5,2 C -8,5 C 16,1 km/h (3 Bft)
20.01.2013 16:15 -4,4 C 94 % 996,0 hPa 0,0 l/m 13,1 km/h (3 Bft) O-NO 57 0 min 0,000 mm 0,0 UV-I 12 W/m -5,2 C -10,9 C 20,9 km/h (4 Bft)
20.01.2013 16:20 -4,4 C 94 % 996,3 hPa 0,0 l/m 10,3 km/h (2 Bft) O-NO 64 0 min 0,000 mm 0,0 UV-I 9 W/m -5,2 C -8,6 C 20,9 km/h (4 Bft)
20.01.2013 16:25 -4,4 C 93 % 996,3 hPa 0,0 l/m 10,1 km/h (2 Bft) O-NO 65 0 min 0,000 mm 0,0 UV-I 7 W/m -5,4 C -8,4 C 19,3 km/h (3 Bft)
20.01.2013 16:30 -4,4 C 93 % 996,4 hPa 0,0 l/m 7,9 km/h (2 Bft) O 90 0 min 0,000 mm 0,0 UV-I 0 W/m -5,4 C -6,2 C 16,1 km/h (3 Bft)
20.01.2013 16:35 -4,4 C 93 % 996,3 hPa 0,0 l/m 8,7 km/h (2 Bft) O-NO 76 0 min 0,000 mm 0,0 UV-I 0 W/m -5,4 C -7,0 C 16,1 km/h (3 Bft)
20.01.2013 16:40 -4,4 C 93 % 996,3 hPa 0,0 l/m 5,4 km/h (1 Bft) O-NO 60 0 min 0,000 mm 0,0 UV-I 0 W/m -5,4 C -4,4 C 11,3 km/h (2 Bft)
20.01.2013 16:45 -4,4 C 94 % 996,4 hPa 0,0 l/m 9,3 km/h (2 Bft) N-NO 27 0 min 0,000 mm 0,0 UV-I 0 W/m -5,2 C -7,6 C 16,1 km/h (3 Bft)
20.01.2013 16:50 -4,4 C 94 % 996,3 hPa 0,0 l/m 9,1 km/h (2 Bft) O-NO 69 0 min 0,000 mm 0,0 UV-I 0 W/m -5,2 C -7,4 C 14,5 km/h (3 Bft)
20.01.2013 16:55 -4,4 C 94 % 996,4 hPa 0,0 l/m 9,5 km/h (2 Bft) O 84 0 min 0,000 mm 0,0 UV-I 0 W/m -5,2 C -7,8 C 20,9 km/h (4 Bft)
20.01.2013 17:00 -4,4 C 93 % 996,4 hPa 0,0 l/m 11,6 km/h (2 Bft) O-NO 66 0 min 0,000 mm 0,0 UV-I 0 W/m -5,4 C -9,7 C 19,3 km/h (3 Bft)
20.01.2013 17:05 -4,3 C 93 % 996,5 hPa 0,0 l/m 9,6 km/h (2 Bft) O-NO 62 0 min 0,000 mm 0,0 UV-I 0 W/m -5,3 C -7,8 C 19,3 km/h (3 Bft)
20.01.2013 17:10 -4,3 C 94 % 996,5 hPa 0,0 l/m 8,4 km/h (2 Bft) O-NO 68 0 min 0,000 mm 0,0 UV-I 0 W/m -5,1 C -6,6 C 16,1 km/h (3 Bft)
20.01.2013 17:15 -4,3 C 94 % 996,4 hPa 0,0 l/m 8,6 km/h (2 Bft) O-NO 65 0 min 0,000 mm 0,0 UV-I 0 W/m -5,1 C -6,8 C 20,9 km/h (4 Bft)
20.01.2013 17:20 -4,3 C 94 % 996,4 hPa 0,0 l/m 7,9 km/h (2 Bft) NO 36 0 min 0,000 mm 0,0 UV-I 0 W/m -5,1 C -6,0 C 16,1 km/h (3 Bft)
20.01.2013 17:25 -4,3 C 94 % 996,4 hPa 0,0 l/m 9,6 km/h (2 Bft) NO 55 0 min 0,000 mm 0,0 UV-I 0 W/m -5,1 C -7,8 C 19,3 km/h (3 Bft)
20.01.2013 17:30 -4,3 C 94 % 996,3 hPa 0,0 l/m 11,1 km/h (2 Bft) NO 51 0 min 0,000 mm 0,0 UV-I 0 W/m -5,1 C -9,2 C 16,1 km/h (3 Bft)
20.01.2013 17:35 -4,2 C 94 % 996,1 hPa 0,0 l/m 8,5 km/h (2 Bft) O-NO 57 0 min 0,000 mm 0,0 UV-I 0 W/m -5,0 C -6,6 C 17,7 km/h (3 Bft)
20.01.2013 17:40 -4,2 C 94 % 996,0 hPa 0,0 l/m 10,3 km/h (2 Bft) NO 55 0 min 0,000 mm 0,0 UV-I 0 W/m -5,0 C -8,4 C 19,3 km/h (3 Bft)
20.01.2013 17:45 -4,1 C 94 % 996,1 hPa 0,0 l/m 7,0 km/h (2 Bft) O 80 0 min 0,000 mm 0,0 UV-I 0 W/m -4,9 C -4,8 C 17,7 km/h (3 Bft)
20.01.2013 17:50 -4,0 C 94 % 996,1 hPa 0,0 l/m 6,0 km/h (2 Bft) O-NO 62 0 min 0,000 mm 0,0 UV-I 0 W/m -4,8 C -4,0 C 12,9 km/h (3 Bft)
20.01.2013 17:55 -3,9 C 94 % 996,1 hPa 0,0 l/m 5,8 km/h (2 Bft) O-NO 57 0 min 0,000 mm 0,0 UV-I 0 W/m -4,7 C -3,9 C 14,5 km/h (3 Bft)
20.01.2013 18:00 -3,9 C 94 % 996,0 hPa 0,0 l/m 6,6 km/h (2 Bft) O-NO 65 0 min 0,000 mm 0,0 UV-I 0 W/m -4,7 C -4,1 C 14,5 km/h (3 Bft)
20.01.2013 18:05 -3,9 C 94 % 996,0 hPa 0,0 l/m 6,4 km/h (2 Bft) N-NO 31 0 min 0,000 mm 0,0 UV-I 0 W/m -4,7 C -3,8 C 14,5 km/h (3 Bft)
20.01.2013 18:10 -3,9 C 94 % 995,9 hPa 0,0 l/m 6,3 km/h (2 Bft) O-NO 67 0 min 0,000 mm 0,0 UV-I 0 W/m -4,7 C -3,9 C 14,5 km/h (3 Bft)
20.01.2013 18:15 -3,9 C 94 % 995,8 hPa 0,0 l/m 8,6 km/h (2 Bft) O 82 0 min 0,000 mm 0,0 UV-I 0 W/m -4,7 C -6,4 C 19,3 km/h (3 Bft)
20.01.2013 18:20 -3,9 C 94 % 995,7 hPa 0,0 l/m 6,9 km/h (2 Bft) O-NO 65 0 min 0,000 mm 0,0 UV-I 0 W/m -4,7 C -4,5 C 16,1 km/h (3 Bft)
20.01.2013 18:25 -3,9 C 94 % 995,5 hPa 0,0 l/m 9,2 km/h (2 Bft) O-NO 75 0 min 0,000 mm 0,0 UV-I 0 W/m -4,7 C -7,0 C 19,3 km/h (3 Bft)
20.01.2013 18:30 -3,9 C 94 % 995,7 hPa 0,0 l/m 6,6 km/h (2 Bft) NO 49 0 min 0,000 mm 0,0 UV-I 0 W/m -4,7 C -4,1 C 14,5 km/h (3 Bft)
20.01.2013 18:35 -3,9 C 94 % 995,8 hPa 0,0 l/m 8,3 km/h (2 Bft) O-NO 63 0 min 0,000 mm 0,0 UV-I 0 W/m -4,7 C -6,1 C 16,1 km/h (3 Bft)
20.01.2013 18:40 -3,9 C 94 % 996,0 hPa 0,0 l/m 7,1 km/h (2 Bft) N-NO 30 0 min 0,000 mm 0,0 UV-I 0 W/m -4,7 C -4,7 C 12,9 km/h (3 Bft)
20.01.2013 18:45 -3,9 C 94 % 996,0 hPa 0,0 l/m 6,6 km/h (2 Bft) O-NO 69 0 min 0,000 mm 0,0 UV-I 0 W/m -4,7 C -4,1 C 12,9 km/h (3 Bft)
20.01.2013 18:50 -3,9 C 94 % 996,1 hPa 0,0 l/m 4,4 km/h (1 Bft) O-NO 74 0 min 0,000 mm 0,0 UV-I 0 W/m -4,7 C -3,9 C 9,7 km/h (2 Bft)
20.01.2013 18:55 -3,9 C 94 % 996,1 hPa 0,0 l/m 8,0 km/h (2 Bft) O-NO 59 0 min 0,000 mm 0,0 UV-I 0 W/m -4,7 C -5,7 C 16,1 km/h (3 Bft)
20.01.2013 19:00 -3,9 C 94 % 996,1 hPa 0,0 l/m 8,5 km/h (2 Bft) O-NO 75 0 min 0,000 mm 0,0 UV-I 0 W/m -4,7 C -6,3 C 19,3 km/h (3 Bft)
20.01.2013 19:05 -3,9 C 94 % 996,1 hPa 0,0 l/m 7,6 km/h (2 Bft) O 100 0 min 0,000 mm 0,0 UV-I 0 W/m -4,7 C -5,3 C 16,1 km/h (3 Bft)
20.01.2013 19:10 -3,9 C 94 % 996,1 hPa 0,0 l/m 11,8 km/h (2 Bft) N-NO 33 0 min 0,000 mm 0,0 UV-I 0 W/m -4,7 C -9,3 C 22,5 km/h (4 Bft)
20.01.2013 19:15 -3,9 C 94 % 996,1 hPa 0,0 l/m 8,9 km/h (2 Bft) NO 49 0 min 0,000 mm 0,0 UV-I 0 W/m -4,7 C -6,7 C 19,3 km/h (3 Bft)
20.01.2013 19:20 -3,9 C 94 % 996,2 hPa 0,0 l/m 7,0 km/h (2 Bft) NO 53 0 min 0,000 mm 0,0 UV-I 0 W/m -4,7 C -4,6 C 17,7 km/h (3 Bft)
20.01.2013 19:25 -3,9 C 94 % 996,1 hPa 0,0 l/m 8,4 km/h (2 Bft) O-NO 71 0 min 0,000 mm 0,0 UV-I 0 W/m -4,7 C -6,2 C 14,5 km/h (3 Bft)
20.01.2013 19:30 -3,9 C 94 % 996,2 hPa 0,0 l/m 10,9 km/h (2 Bft) NO 49 0 min 0,000 mm 0,0 UV-I 0 W/m -4,7 C -8,6 C 19,3 km/h (3 Bft)
20.01.2013 19:35 -3,9 C 94 % 996,1 hPa 0,0 l/m 8,5 km/h (2 Bft) O-SO 108 0 min 0,000 mm 0,0 UV-I 0 W/m -4,7 C -6,3 C 17,7 km/h (3 Bft)
20.01.2013 19:40 -3,9 C 94 % 996,0 hPa 0,0 l/m 9,7 km/h (2 Bft) O-NO 57 0 min 0,000 mm 0,0 UV-I 0 W/m -4,7 C -7,5 C 17,7 km/h (3 Bft)
20.01.2013 19:45 -3,9 C 94 % 995,9 hPa 0,0 l/m 9,9 km/h (2 Bft) O-NO 58 0 min 0,000 mm 0,0 UV-I 0 W/m -4,7 C -7,7 C 16,1 km/h (3 Bft)
20.01.2013 19:50 -3,8 C 94 % 996,0 hPa 0,2 l/m 6,9 km/h (2 Bft) O-NO 77 0 min 0,000 mm 0,0 UV-I 0 W/m -4,6 C -4,4 C 12,9 km/h (3 Bft)
20.01.2013 19:55 -3,8 C 94 % 996,1 hPa 0,0 l/m 3,7 km/h (1 Bft) O-NO 70 0 min 0,000 mm 0,0 UV-I 0 W/m -4,6 C -3,8 C 8,0 km/h (2 Bft)
20.01.2013 20:00 -3,8 C 94 % 996,2 hPa 0,0 l/m 1,7 km/h (1 Bft) NO 34 0 min 0,000 mm 0,0 UV-I 0 W/m -4,6 C -3,8 C 6,4 km/h (2 Bft)
20.01.2013 20:05 -3,7 C 94 % 996,3 hPa 0,2 l/m 0,3 km/h (0 Bft) NO 34 0 min 0,000 mm 0,0 UV-I 0 W/m -4,5 C -3,7 C 3,2 km/h (1 Bft)
20.01.2013 20:10 -3,7 C 94 % 996,3 hPa 0,0 l/m 0,6 km/h (0 Bft) NO 37 0 min 0,000 mm 0,0 UV-I 0 W/m -4,5 C -3,7 C 3,2 km/h (1 Bft)
20.01.2013 20:15 -3,6 C 94 % 996,3 hPa 0,0 l/m 1,2 km/h (1 Bft) NO 44 0 min 0,000 mm 0,0 UV-I 0 W/m -4,4 C -3,6 C 4,8 km/h (1 Bft)
20.01.2013 20:20 -3,6 C 94 % 996,4 hPa 0,2 l/m 0,4 km/h (0 Bft) NO 45 0 min 0,000 mm 0,0 UV-I 0 W/m -4,4 C -3,6 C 3,2 km/h (1 Bft)
20.01.2013 20:25 -3,6 C 94 % 996,5 hPa 0,0 l/m 1,2 km/h (1 Bft) O-NO 66 0 min 0,000 mm 0,0 UV-I 0 W/m -4,4 C -3,6 C 8,0 km/h (2 Bft)
20.01.2013 20:30 -3,5 C 94 % 996,6 hPa 0,0 l/m 3,7 km/h (1 Bft) NO 45 0 min 0,000 mm 0,0 UV-I 0 W/m -4,3 C -3,5 C 11,3 km/h (2 Bft)
20.01.2013 20:35 -3,5 C 94 % 996,6 hPa 0,2 l/m 2,7 km/h (1 Bft) NO 41 0 min 0,000 mm 0,0 UV-I 0 W/m -4,3 C -3,5 C 8,0 km/h (2 Bft)
20.01.2013 20:40 -3,5 C 94 % 996,6 hPa 0,0 l/m 4,6 km/h (1 Bft) O 83 0 min 0,000 mm 0,0 UV-I 0 W/m -4,3 C -3,5 C 11,3 km/h (2 Bft)
20.01.2013 20:45 -3,6 C 94 % 996,6 hPa 0,0 l/m 5,5 km/h (1 Bft) O-NO 59 0 min 0,000 mm 0,0 UV-I 0 W/m -4,4 C -3,6 C 11,3 km/h (2 Bft)
20.01.2013 20:50 -3,7 C 94 % 996,6 hPa 0,2 l/m 4,4 km/h (1 Bft) NO 52 0 min 0,000 mm 0,0 UV-I 0 W/m -4,5 C -3,7 C 9,7 km/h (2 Bft)
20.01.2013 20:55 -3,7 C 94 % 996,5 hPa 0,0 l/m 4,6 km/h (1 Bft) O-NO 69 0 min 0,000 mm 0,0 UV-I 0 W/m -4,5 C -3,7 C 11,3 km/h (2 Bft)
20.01.2013 21:00 -3,7 C 94 % 996,5 hPa 0,0 l/m 5,5 km/h (1 Bft) O-NO 66 0 min 0,000 mm 0,0 UV-I 0 W/m -4,5 C -3,7 C 8,0 km/h (2 Bft)
20.01.2013 21:05 -3,7 C 94 % 996,5 hPa 0,0 l/m 3,6 km/h (1 Bft) NO 53 0 min 0,000 mm 0,0 UV-I 0 W/m -4,5 C -3,7 C 8,0 km/h (2 Bft)
20.01.2013 21:10 -3,7 C 94 % 996,5 hPa 0,2 l/m 4,7 km/h (1 Bft) O-NO 60 0 min 0,000 mm 0,0 UV-I 0 W/m -4,5 C -3,7 C 11,3 km/h (2 Bft)
20.01.2013 21:15 -3,8 C 94 % 996,6 hPa 0,0 l/m 2,7 km/h (1 Bft) NO 55 0 min 0,000 mm 0,0 UV-I 0 W/m -4,6 C -3,8 C 6,4 km/h (2 Bft)
20.01.2013 21:20 -3,8 C 94 % 996,7 hPa 0,0 l/m 2,7 km/h (1 Bft) O 101 0 min 0,000 mm 0,0 UV-I 0 W/m -4,6 C -3,8 C 6,4 km/h (2 Bft)
20.01.2013 21:25 -3,8 C 94 % 996,7 hPa 0,0 l/m 2,6 km/h (1 Bft) O-NO 67 0 min 0,000 mm 0,0 UV-I 0 W/m -4,6 C -3,8 C 8,0 km/h (2 Bft)
20.01.2013 21:30 -3,8 C 94 % 996,9 hPa 0,0 l/m 1,6 km/h (1 Bft) O 100 0 min 0,000 mm 0,0 UV-I 0 W/m -4,6 C -3,8 C 4,8 km/h (1 Bft)
20.01.2013 21:35 -3,8 C 94 % 996,8 hPa 0,0 l/m 2,4 km/h (1 Bft) O-NO 61 0 min 0,000 mm 0,0 UV-I 0 W/m -4,6 C -3,8 C 6,4 km/h (2 Bft)
20.01.2013 21:40 -3,9 C 94 % 996,8 hPa 0,2 l/m 3,8 km/h (1 Bft) O-NO 68 0 min 0,000 mm 0,0 UV-I 0 W/m -4,7 C -3,9 C 6,4 km/h (2 Bft)
20.01.2013 21:45 -3,9 C 94 % 996,8 hPa 0,0 l/m 2,7 km/h (1 Bft) O-NO 67 0 min 0,000 mm 0,0 UV-I 0 W/m -4,7 C -3,9 C 6,4 km/h (2 Bft)
20.01.2013 21:50 -3,9 C 94 % 996,8 hPa 0,0 l/m 1,3 km/h (1 Bft) O-NO 71 0 min 0,000 mm 0,0 UV-I 0 W/m -4,7 C -3,9 C 4,8 km/h (1 Bft)
20.01.2013 21:55 -3,9 C 94 % 996,9 hPa 0,0 l/m 2,0 km/h (1 Bft) NO 53 0 min 0,000 mm 0,0 UV-I 0 W/m -4,7 C -3,9 C 4,8 km/h (1 Bft)
20.01.2013 22:00 -3,9 C 94 % 996,9 hPa 0,2 l/m 1,7 km/h (1 Bft) O-NO 65 0 min 0,000 mm 0,0 UV-I 0 W/m -4,7 C -3,9 C 4,8 km/h (1 Bft)
20.01.2013 22:05 -3,9 C 94 % 996,9 hPa 0,0 l/m 1,4 km/h (1 Bft) O-NO 66 0 min 0,000 mm 0,0 UV-I 0 W/m -4,7 C -3,9 C 3,2 km/h (1 Bft)
20.01.2013 22:10 -3,9 C 94 % 996,9 hPa 0,0 l/m 3,2 km/h (1 Bft) NO 55 0 min 0,000 mm 0,0 UV-I 0 W/m -4,7 C -3,9 C 4,8 km/h (1 Bft)
20.01.2013 22:15 -4,0 C 94 % 996,8 hPa 0,0 l/m 3,2 km/h (1 Bft) NO 56 0 min 0,000 mm 0,0 UV-I 0 W/m -4,8 C -4,0 C 6,4 km/h (2 Bft)
20.01.2013 22:20 -4,0 C 94 % 996,9 hPa 0,0 l/m 1,5 km/h (1 Bft) O 89 0 min 0,000 mm 0,0 UV-I 0 W/m -4,8 C -4,0 C 4,8 km/h (1 Bft)
20.01.2013 22:25 -4,0 C 94 % 996,9 hPa 0,0 l/m 2,3 km/h (1 Bft) O-NO 67 0 min 0,000 mm 0,0 UV-I 0 W/m -4,8 C -4,0 C 4,8 km/h (1 Bft)
20.01.2013 22:30 -4,1 C 94 % 996,9 hPa 0,0 l/m 3,3 km/h (1 Bft) O-NO 69 0 min 0,000 mm 0,0 UV-I 0 W/m -4,9 C -4,1 C 6,4 km/h (2 Bft)
20.01.2013 22:35 -4,1 C 94 % 997,0 hPa 0,2 l/m 2,4 km/h (1 Bft) O 99 0 min 0,000 mm 0,0 UV-I 0 W/m -4,9 C -4,1 C 4,8 km/h (1 Bft)
20.01.2013 22:40 -4,0 C 94 % 996,9 hPa 0,0 l/m 2,4 km/h (1 Bft) O-NO 65 0 min 0,000 mm 0,0 UV-I 0 W/m -4,8 C -4,0 C 4,8 km/h (1 Bft)
20.01.2013 22:45 -4,0 C 94 % 997,1 hPa 0,0 l/m 2,8 km/h (1 Bft) O-NO 78 0 min 0,000 mm 0,0 UV-I 0 W/m -4,8 C -4,0 C 6,4 km/h (2 Bft)
20.01.2013 22:50 -4,0 C 94 % 997,2 hPa 0,0 l/m 2,3 km/h (1 Bft) O 90 0 min 0,000 mm 0,0 UV-I 0 W/m -4,8 C -4,0 C 4,8 km/h (1 Bft)
20.01.2013 22:55 -4,0 C 94 % 997,2 hPa 0,0 l/m 2,1 km/h (1 Bft) O 94 0 min 0,000 mm 0,0 UV-I 0 W/m -4,8 C -4,0 C 8,0 km/h (2 Bft)
20.01.2013 23:00 -4,0 C 94 % 997,3 hPa 0,0 l/m 2,9 km/h (1 Bft) O-NO 65 0 min 0,000 mm 0,0 UV-I 0 W/m -4,8 C -4,0 C 8,0 km/h (2 Bft)
20.01.2013 23:05 -4,0 C 94 % 997,4 hPa 0,0 l/m 1,2 km/h (1 Bft) O-NO 63 0 min 0,000 mm 0,0 UV-I 0 W/m -4,8 C -4,0 C 4,8 km/h (1 Bft)
20.01.2013 23:10 -4,0 C 94 % 997,4 hPa 0,0 l/m 1,7 km/h (1 Bft) O-NO 63 0 min 0,000 mm 0,0 UV-I 0 W/m -4,8 C -4,0 C 3,2 km/h (1 Bft)
20.01.2013 23:15 -4,0 C 94 % 997,4 hPa 0,0 l/m 3,7 km/h (1 Bft) O-NO 62 0 min 0,000 mm 0,0 UV-I 0 W/m -4,8 C -4,0 C 6,4 km/h (2 Bft)
20.01.2013 23:20 -4,0 C 94 % 997,4 hPa 0,0 l/m 1,9 km/h (1 Bft) O-NO 62 0 min 0,000 mm 0,0 UV-I 0 W/m -4,8 C -4,0 C 3,2 km/h (1 Bft)
20.01.2013 23:25 -4,0 C 94 % 997,4 hPa 0,0 l/m 2,0 km/h (1 Bft) O-NO 63 0 min 0,000 mm 0,0 UV-I 0 W/m -4,8 C -4,0 C 4,8 km/h (1 Bft)
20.01.2013 23:30 -4,0 C 94 % 997,4 hPa 0,2 l/m 4,2 km/h (1 Bft) O-NO 67 0 min 0,000 mm 0,0 UV-I 0 W/m -4,8 C -4,0 C 8,0 km/h (2 Bft)
20.01.2013 23:35 -4,0 C 94 % 997,3 hPa 0,0 l/m 3,4 km/h (1 Bft) O-SO 102 0 min 0,000 mm 0,0 UV-I 0 W/m -4,8 C -4,0 C 8,0 km/h (2 Bft)
20.01.2013 23:40 -4,0 C 94 % 997,3 hPa 0,0 l/m 2,7 km/h (1 Bft) O-NO 65 0 min 0,000 mm 0,0 UV-I 0 W/m -4,8 C -4,0 C 4,8 km/h (1 Bft)
20.01.2013 23:45 -4,0 C 94 % 997,4 hPa 0,0 l/m 2,2 km/h (1 Bft) NO 53 0 min 0,000 mm 0,0 UV-I 0 W/m -4,8 C -4,0 C 4,8 km/h (1 Bft)
20.01.2013 23:50 -4,1 C 94 % 997,3 hPa 0,0 l/m 2,9 km/h (1 Bft) NO 53 0 min 0,000 mm 0,0 UV-I 0 W/m -4,9 C -4,1 C 6,4 km/h (2 Bft)
20.01.2013 23:55 -4,1 C 94 % 997,4 hPa 0,0 l/m 2,8 km/h (1 Bft) O-NO 67 0 min 0,000 mm 0,0 UV-I 0 W/m -4,9 C -4,1 C 6,4 km/h (2 Bft)
_ Min-Zeit 07:35 00:00 18:25 - 20:05 - - - - - - 02:45 05:15 20:05
Minimum _ -6,7 C 87 % 995,5 hPa - 0,3 km/h (0 Bft) - - - - - - -8,2 C -15,0 C 3,2 km/h (1 Bft)
_ Max-Zeit 20:30 13:50 00:00 09:00 05:15 - - 11:55 12:05 11:55 11:55 20:30 20:30 03:30
Maximum _ -3,5 C 94 % 998,6 hPa 0,2 l/m 15,0 km/h
O-NO (3 Bft)
- - 5 min 0,026 mm 0,6 UV-I 192 W/m -4,3 C -3,5 C 30,6 km/h
O-NO (5 Bft)
Durchschnitt _ -5,3 C 91 % 997,0 hPa #3,2 l/m 7,5 km/h (2 Bft) O-NO - #15 min. #0,127 mm 0,5 UV-I 57 W/m -6,5 C -7,5 C 15,8 km/h (3 Bft)